Tracking 31080 objects as of 20-Jul-2025
HD Live streaming from Space Station
objects crossing your sky now

STARLINK-32869

Track STARLINK-32869 now!
10-day predictions
STARLINK-32869 is classified as:


NORAD ID: 62859
Int'l Code: 2025-022F
Perigee: 481.4 km
Apogee: 483.3 km
Inclination: 53.2 °
Period: 94.1 minutes
Semi major axis: 6853 km
RCS: Unknown
Launch date: February 1, 2025
Source: United States (US)
Launch site: AIR FORCE WESTERN TEST RANGE (AFWTR)
Your satellite tracking list
Your tracking list is empty




NASA's NSSDC Master Catalog

Two Line Element Set (TLE):
1 62859U 25022F   25200.19954305  .00018834  00000-0  64623-3 0  9994
2 62859  53.1598 134.0073 0001347  83.9692 276.1462 15.30208383 26158
Source of the keplerian elements: AFSPC